Location: B?ogocice
(50.2413°N, 20.2361°E)
Time: 23:57:23
(UTC+00:00)

Meteor 1-11 - Pass Details

Date: 15 June 2024
Orbit: 841 x 885 km, 81.2° (Epoch: 18 July)

Event Time Altitude Azimuth Distance (km) Brightness Sun altitude
Exits shadow 00:15:29 18° 190° (S) 2,018 5.6 -13.4°
Maximum altitude 00:19:54 90° 242° (WSW) 893 4.3 -13.2°
Drops below altitude 10° 00:25:45 10° 12° (NNE) 2,557 8.1 -12.8°
Sets 00:28:12 0° 13° (NNE) 3,497 9.2 -12.6°
